Year,Month,Day,Hour,Minute,Value (Times are PST for temperature in C)
2006,09,25,00,00,11.60
2006,09,25,00,01,11.60
2006,09,25,00,02,11.60
2006,09,25,00,03,11.60
2006,09,25,00,04,11.60
2006,09,25,00,05,11.60
2006,09,25,00,06,11.60
2006,09,25,00,07,11.60
2006,09,25,00,08,11.60
2006,09,25,00,09,11.60
2006,09,25,00,10,11.60
2006,09,25,00,11,11.60
2006,09,25,00,12,11.60
2006,09,25,00,13,11.60
2006,09,25,00,14,11.40
2006,09,25,00,15,11.40
2006,09,25,00,16,11.40
2006,09,25,00,17,11.40
2006,09,25,00,18,11.40
2006,09,25,00,19,11.30
2006,09,25,00,20,11.30
2006,09,25,00,21,11.20
2006,09,25,00,22,11.20
2006,09,25,00,23,11.10
2006,09,25,00,24,11.10
2006,09,25,00,25,11.10
2006,09,25,00,26,11.10
2006,09,25,00,27,11.10
2006,09,25,00,28,11.00
2006,09,25,00,29,10.90
2006,09,25,00,30,10.90
2006,09,25,00,31,10.90
2006,09,25,00,32,10.90
2006,09,25,00,33,10.90
2006,09,25,00,34,10.90
2006,09,25,00,35,10.90
2006,09,25,00,36,10.90
2006,09,25,00,37,10.90
2006,09,25,00,38,10.90
2006,09,25,00,39,10.80
2006,09,25,00,40,10.80
2006,09,25,00,41,10.80
2006,09,25,00,42,10.80
2006,09,25,00,43,10.70
2006,09,25,00,44,10.70
2006,09,25,00,45,10.70
2006,09,25,00,46,10.70
2006,09,25,00,47,10.60
2006,09,25,00,48,10.60
2006,09,25,00,49,10.60
2006,09,25,00,50,10.60
2006,09,25,00,51,10.60
2006,09,25,00,52,10.60
2006,09,25,00,53,10.60
2006,09,25,00,54,10.60
2006,09,25,00,55,10.60
2006,09,25,00,56,10.50
2006,09,25,00,57,10.40
2006,09,25,00,58,10.40
2006,09,25,00,59,10.40
2006,09,25,01,00,10.40
2006,09,25,01,01,10.40
2006,09,25,01,02,10.40
2006,09,25,01,03,10.40
2006,09,25,01,04,10.40
2006,09,25,01,05,10.40
2006,09,25,01,06,10.40
2006,09,25,01,07,10.40
2006,09,25,01,08,10.40
2006,09,25,01,09,10.50
2006,09,25,01,10,10.60
2006,09,25,01,11,10.60
2006,09,25,01,12,10.60
2006,09,25,01,13,10.60
2006,09,25,01,14,10.60
2006,09,25,01,15,10.60
2006,09,25,01,16,10.60
2006,09,25,01,17,10.60
2006,09,25,01,18,10.60
2006,09,25,01,19,10.60
2006,09,25,01,20,10.60
2006,09,25,01,21,10.60
2006,09,25,01,22,10.60
2006,09,25,01,23,10.60
2006,09,25,01,24,10.60
2006,09,25,01,25,10.60
2006,09,25,01,26,10.60
2006,09,25,01,27,10.60
2006,09,25,01,28,10.60
2006,09,25,01,29,10.60
2006,09,25,01,30,10.60
2006,09,25,01,31,10.60
2006,09,25,01,32,10.60
2006,09,25,01,33,10.60
2006,09,25,01,34,10.60
2006,09,25,01,35,10.70
2006,09,25,01,36,10.80
2006,09,25,01,37,10.90
2006,09,25,01,38,10.90
2006,09,25,01,39,10.90
2006,09,25,01,40,10.90
2006,09,25,01,41,11.00
2006,09,25,01,42,11.10
2006,09,25,01,43,11.10
2006,09,25,01,44,11.10
2006,09,25,01,45,11.10
2006,09,25,01,46,11.10
2006,09,25,01,47,11.20
2006,09,25,01,48,11.20
2006,09,25,01,49,11.20
2006,09,25,01,50,11.30
2006,09,25,01,51,11.30
2006,09,25,01,52,11.30
2006,09,25,01,53,11.30
2006,09,25,01,54,11.40
2006,09,25,01,55,11.40
2006,09,25,01,56,11.40
2006,09,25,01,57,11.40
2006,09,25,01,58,11.40
2006,09,25,01,59,11.40
2006,09,25,02,00,11.30
2006,09,25,02,01,11.30
2006,09,25,02,02,11.30
2006,09,25,02,03,11.20
2006,09,25,02,04,11.20
2006,09,25,02,05,11.10
2006,09,25,02,06,11.00
2006,09,25,02,07,10.90
2006,09,25,02,08,10.90
2006,09,25,02,09,10.80
2006,09,25,02,10,10.70
2006,09,25,02,11,10.70
2006,09,25,02,12,10.60
2006,09,25,02,13,10.60
2006,09,25,02,14,10.60
2006,09,25,02,15,10.60
2006,09,25,02,16,10.60
2006,09,25,02,17,10.40
2006,09,25,02,18,10.40
2006,09,25,02,19,10.40
2006,09,25,02,20,10.40
2006,09,25,02,21,10.40
2006,09,25,02,22,10.40
2006,09,25,02,23,10.40
2006,09,25,02,24,10.40
2006,09,25,02,25,10.40
2006,09,25,02,26,10.40
2006,09,25,02,27,10.30
2006,09,25,02,28,10.30
2006,09,25,02,29,10.30
2006,09,25,02,30,10.30
2006,09,25,02,31,10.20
2006,09,25,02,32,10.20
2006,09,25,02,33,10.10
2006,09,25,02,34,10.10
2006,09,25,02,35,10.10
2006,09,25,02,36,10.00
2006,09,25,02,37,9.90
2006,09,25,02,38,9.90
2006,09,25,02,39,9.90
2006,09,25,02,40,9.90
2006,09,25,02,41,9.90
2006,09,25,02,42,9.90
2006,09,25,02,43,9.90
2006,09,25,02,44,9.90
2006,09,25,02,45,9.90
2006,09,25,02,46,9.90
2006,09,25,02,47,9.90
2006,09,25,02,48,9.90
2006,09,25,02,49,9.90
2006,09,25,02,50,9.90
2006,09,25,02,51,9.90
2006,09,25,02,52,9.90
2006,09,25,02,53,9.90
2006,09,25,02,54,9.90
2006,09,25,02,55,9.90
2006,09,25,02,56,9.90
2006,09,25,02,57,9.90
2006,09,25,02,58,9.90
2006,09,25,02,59,9.90
2006,09,25,03,00,9.90
2006,09,25,03,01,9.90
2006,09,25,03,02,9.90
2006,09,25,03,03,9.90
2006,09,25,03,04,9.90
2006,09,25,03,05,9.90
2006,09,25,03,06,9.90
2006,09,25,03,07,9.90
2006,09,25,03,08,9.90
2006,09,25,03,09,9.90
2006,09,25,03,10,9.90
2006,09,25,03,11,10.00
2006,09,25,03,12,10.20
2006,09,25,03,13,10.50
2006,09,25,03,14,10.80
2006,09,25,03,15,11.00
2006,09,25,03,16,11.20
2006,09,25,03,17,11.30
2006,09,25,03,18,11.30
2006,09,25,03,19,11.40
2006,09,25,03,20,11.40
2006,09,25,03,21,11.30
2006,09,25,03,22,11.20
2006,09,25,03,23,11.20
2006,09,25,03,24,11.10
2006,09,25,03,25,11.10
2006,09,25,03,26,11.00
2006,09,25,03,27,10.90
2006,09,25,03,28,10.90
2006,09,25,03,29,10.80
2006,09,25,03,30,10.70
2006,09,25,03,31,10.70
2006,09,25,03,32,10.60
2006,09,25,03,33,10.60
2006,09,25,03,34,10.50
2006,09,25,03,35,10.40
2006,09,25,03,36,10.40
2006,09,25,03,37,10.40
2006,09,25,03,38,10.40
2006,09,25,03,39,10.30
2006,09,25,03,40,10.30
2006,09,25,03,41,10.30
2006,09,25,03,42,10.20
2006,09,25,03,43,10.20
2006,09,25,03,44,10.20
2006,09,25,03,45,10.20
2006,09,25,03,46,10.20
2006,09,25,03,47,10.40
2006,09,25,03,48,10.40
2006,09,25,03,49,10.60
2006,09,25,03,50,10.60
2006,09,25,03,51,10.60
2006,09,25,03,52,10.60
2006,09,25,03,53,10.70
2006,09,25,03,54,10.90
2006,09,25,03,55,11.00
2006,09,25,03,56,11.10
2006,09,25,03,57,11.10
2006,09,25,03,58,11.10
2006,09,25,03,59,11.10
2006,09,25,04,00,11.10
2006,09,25,04,01,11.10
2006,09,25,04,02,11.10
2006,09,25,04,03,11.10
2006,09,25,04,04,11.00
2006,09,25,04,05,10.90
2006,09,25,04,06,10.80
2006,09,25,04,07,10.80
2006,09,25,04,08,10.60
2006,09,25,04,09,10.60
2006,09,25,04,10,10.50
2006,09,25,04,11,10.40
2006,09,25,04,12,10.40
2006,09,25,04,13,10.40
2006,09,25,04,14,10.40
2006,09,25,04,15,10.30
2006,09,25,04,16,10.10
2006,09,25,04,17,10.10
2006,09,25,04,18,10.10
2006,09,25,04,19,10.00
2006,09,25,04,20,9.90
2006,09,25,04,21,9.90
2006,09,25,04,22,9.90
2006,09,25,04,23,9.90
2006,09,25,04,24,9.80
2006,09,25,04,25,9.80
2006,09,25,04,26,9.80
2006,09,25,04,27,9.70
2006,09,25,04,28,9.70
2006,09,25,04,29,9.70
2006,09,25,04,30,9.70
2006,09,25,04,31,9.70
2006,09,25,04,32,9.70
2006,09,25,04,33,9.70
2006,09,25,04,34,9.70
2006,09,25,04,35,9.60
2006,09,25,04,36,9.50
2006,09,25,04,37,9.50
2006,09,25,04,38,9.40
2006,09,25,04,39,9.40
2006,09,25,04,40,9.40
2006,09,25,04,41,9.40
2006,09,25,04,42,9.40
2006,09,25,04,43,9.30
2006,09,25,04,44,9.30
2006,09,25,04,45,9.30
2006,09,25,04,46,9.30
2006,09,25,04,47,9.30
2006,09,25,04,48,9.30
2006,09,25,04,49,9.40
2006,09,25,04,50,9.40
2006,09,25,04,51,9.40
2006,09,25,04,52,9.40
2006,09,25,04,53,9.40
2006,09,25,04,54,9.40
2006,09,25,04,55,9.40
2006,09,25,04,56,9.50
2006,09,25,04,57,9.50
2006,09,25,04,58,9.50
2006,09,25,04,59,9.50
2006,09,25,05,00,9.50
2006,09,25,05,01,9.50
2006,09,25,05,02,9.50
2006,09,25,05,03,9.50
2006,09,25,05,04,9.50
2006,09,25,05,05,9.50
2006,09,25,05,06,9.50
2006,09,25,05,07,9.50
2006,09,25,05,08,9.50
2006,09,25,05,09,9.60
2006,09,25,05,10,9.70
2006,09,25,05,11,9.70
2006,09,25,05,12,9.70
2006,09,25,05,13,9.70
2006,09,25,05,14,9.70
2006,09,25,05,15,9.70
2006,09,25,05,16,9.70
2006,09,25,05,17,9.80
2006,09,25,05,18,9.80
2006,09,25,05,19,9.90
2006,09,25,05,20,9.90
2006,09,25,05,21,9.90
2006,09,25,05,22,9.90
2006,09,25,05,23,9.90
2006,09,25,05,24,9.90
2006,09,25,05,25,9.90
2006,09,25,05,26,9.80
2006,09,25,05,27,9.80
2006,09,25,05,28,9.80
2006,09,25,05,29,9.80
2006,09,25,05,30,9.70
2006,09,25,05,31,9.70
2006,09,25,05,32,9.70
2006,09,25,05,33,9.70
2006,09,25,05,34,9.70
2006,09,25,05,35,9.70
2006,09,25,05,36,9.70
2006,09,25,05,37,9.70
2006,09,25,05,38,9.60
2006,09,25,05,39,9.60
2006,09,25,05,40,9.60
2006,09,25,05,41,9.50
2006,09,25,05,42,9.50
2006,09,25,05,43,9.40
2006,09,25,05,44,9.40
2006,09,25,05,45,9.40
2006,09,25,05,46,9.40
2006,09,25,05,47,9.40
2006,09,25,05,48,9.40
2006,09,25,05,49,9.40
2006,09,25,05,50,9.40
2006,09,25,05,51,9.40
2006,09,25,05,52,9.40
2006,09,25,05,53,9.40
2006,09,25,05,54,9.40
2006,09,25,05,55,9.40
2006,09,25,05,56,9.40
2006,09,25,05,57,9.50
2006,09,25,05,58,9.60
2006,09,25,05,59,9.60
2006,09,25,06,00,9.50
2006,09,25,06,01,9.50
2006,09,25,06,02,9.50
2006,09,25,06,03,9.50
2006,09,25,06,04,9.50
2006,09,25,06,05,9.40
2006,09,25,06,06,9.40
2006,09,25,06,07,9.40
2006,09,25,06,08,9.30
2006,09,25,06,09,9.30
2006,09,25,06,10,9.20
2006,09,25,06,11,9.20
2006,09,25,06,12,9.10
2006,09,25,06,13,9.10
2006,09,25,06,14,9.00
2006,09,25,06,15,9.00
2006,09,25,06,16,9.00
2006,09,25,06,17,8.90
2006,09,25,06,18,8.90
2006,09,25,06,19,8.90
2006,09,25,06,20,8.90
2006,09,25,06,21,8.80
2006,09,25,06,22,8.80
2006,09,25,06,23,8.80
2006,09,25,06,24,8.80
2006,09,25,06,25,8.70
2006,09,25,06,26,8.70
2006,09,25,06,27,8.70
2006,09,25,06,28,8.70
2006,09,25,06,29,8.70
2006,09,25,06,30,8.70
2006,09,25,06,31,8.70
2006,09,25,06,32,8.70
2006,09,25,06,33,8.70
2006,09,25,06,34,8.70
2006,09,25,06,35,8.70
2006,09,25,06,36,8.70
2006,09,25,06,37,8.70
2006,09,25,06,38,8.70
2006,09,25,06,39,8.60
2006,09,25,06,40,8.60
2006,09,25,06,41,8.60
2006,09,25,06,42,8.60
2006,09,25,06,43,8.60
2006,09,25,06,44,8.60
2006,09,25,06,45,8.60
2006,09,25,06,46,8.60
2006,09,25,06,47,8.50
2006,09,25,06,48,8.50
2006,09,25,06,49,8.50
2006,09,25,06,50,8.50
2006,09,25,06,51,8.40
2006,09,25,06,52,8.40
2006,09,25,06,53,8.40
2006,09,25,06,54,8.30
2006,09,25,06,55,8.30
2006,09,25,06,56,8.30
2006,09,25,06,57,8.30
2006,09,25,06,58,8.30
2006,09,25,06,59,8.30
2006,09,25,07,00,8.30
2006,09,25,07,01,8.30
2006,09,25,07,02,8.30
2006,09,25,07,03,8.30
2006,09,25,07,04,8.30
2006,09,25,07,05,8.30
2006,09,25,07,06,8.30
2006,09,25,07,07,8.30
2006,09,25,07,08,8.30
2006,09,25,07,09,8.30
2006,09,25,07,10,8.30
2006,09,25,07,11,8.20
2006,09,25,07,12,8.30
2006,09,25,07,13,8.30
2006,09,25,07,14,8.30
2006,09,25,07,15,8.30
2006,09,25,07,16,8.30
2006,09,25,07,17,8.30
2006,09,25,07,18,8.30
2006,09,25,07,19,8.20
2006,09,25,07,20,8.20
2006,09,25,07,21,8.20
2006,09,25,07,22,8.20
2006,09,25,07,23,8.20
2006,09,25,07,24,8.20
2006,09,25,07,25,8.20
2006,09,25,07,26,8.20
2006,09,25,07,27,8.20
2006,09,25,07,28,8.20
2006,09,25,07,29,8.20
2006,09,25,07,30,8.30
2006,09,25,07,31,8.30
2006,09,25,07,32,8.40
2006,09,25,07,33,8.40
2006,09,25,07,34,8.50
2006,09,25,07,35,8.50
2006,09,25,07,36,8.50
2006,09,25,07,37,8.60
2006,09,25,07,38,8.60
2006,09,25,07,39,8.60
2006,09,25,07,40,8.60
2006,09,25,07,41,8.70
2006,09,25,07,42,8.70
2006,09,25,07,43,8.80
2006,09,25,07,44,8.90
2006,09,25,07,45,9.00
2006,09,25,07,46,9.10
2006,09,25,07,47,9.10
2006,09,25,07,48,9.20
2006,09,25,07,49,9.30
2006,09,25,07,50,9.40
2006,09,25,07,51,9.50
2006,09,25,07,52,9.50
2006,09,25,07,53,9.60
2006,09,25,07,54,9.70
2006,09,25,07,55,9.70
2006,09,25,07,56,9.80
2006,09,25,07,57,9.80
2006,09,25,07,58,9.80
2006,09,25,07,59,9.90
2006,09,25,08,00,9.90
2006,09,25,08,01,9.90
2006,09,25,08,02,9.90
2006,09,25,08,03,10.00
2006,09,25,08,04,10.10
2006,09,25,08,05,10.20
2006,09,25,08,06,10.20
2006,09,25,08,07,10.30
2006,09,25,08,08,10.30
2006,09,25,08,09,10.30
2006,09,25,08,10,10.30
2006,09,25,08,11,10.30
2006,09,25,08,12,10.40
2006,09,25,08,13,10.40
2006,09,25,08,14,10.40
2006,09,25,08,15,10.40
2006,09,25,08,16,10.40
2006,09,25,08,17,10.40
2006,09,25,08,18,10.40
2006,09,25,08,19,10.40
2006,09,25,08,20,10.40
2006,09,25,08,21,10.40
2006,09,25,08,22,10.40
2006,09,25,08,23,10.50
2006,09,25,08,24,10.60
2006,09,25,08,25,10.60
2006,09,25,08,26,10.60
2006,09,25,08,27,10.70
2006,09,25,08,28,10.70
2006,09,25,08,29,10.80
2006,09,25,08,30,10.80
2006,09,25,08,31,10.90
2006,09,25,08,32,10.90
2006,09,25,08,33,10.90
2006,09,25,08,34,11.10
2006,09,25,08,35,11.10
2006,09,25,08,36,11.10
2006,09,25,08,37,11.20
2006,09,25,08,38,11.30
2006,09,25,08,39,11.30
2006,09,25,08,40,11.40
2006,09,25,08,41,11.40
2006,09,25,08,42,11.40
2006,09,25,08,43,11.50
2006,09,25,08,44,11.60
2006,09,25,08,45,11.70
2006,09,25,08,46,11.80
2006,09,25,08,47,11.80
2006,09,25,08,48,11.90
2006,09,25,08,49,12.00
2006,09,25,08,50,12.00
2006,09,25,08,51,12.20
2006,09,25,08,52,12.20
2006,09,25,08,53,12.20
2006,09,25,08,54,12.40
2006,09,25,08,55,12.50
2006,09,25,08,56,12.60
2006,09,25,08,57,12.60
2006,09,25,08,58,12.70
2006,09,25,08,59,12.80
2006,09,25,09,00,12.80
2006,09,25,09,01,13.00
2006,09,25,09,02,13.20
2006,09,25,09,03,13.30
2006,09,25,09,04,13.50
2006,09,25,09,05,13.60
2006,09,25,09,06,13.80
2006,09,25,09,07,13.90
2006,09,25,09,08,14.00
2006,09,25,09,09,14.10
2006,09,25,09,10,14.30
2006,09,25,09,11,14.50
2006,09,25,09,12,14.60
2006,09,25,09,13,14.70
2006,09,25,09,14,14.80
2006,09,25,09,15,14.90
2006,09,25,09,16,15.00
2006,09,25,09,17,15.10
2006,09,25,09,18,15.20
2006,09,25,09,19,15.30
2006,09,25,09,20,15.50
2006,09,25,09,21,15.60
2006,09,25,09,22,15.70
2006,09,25,09,23,15.90
2006,09,25,09,24,16.00
2006,09,25,09,25,16.20
2006,09,25,09,26,16.30
2006,09,25,09,27,16.40
2006,09,25,09,28,16.60
2006,09,25,09,29,16.70
2006,09,25,09,30,16.80
2006,09,25,09,31,16.90
2006,09,25,09,32,17.10
2006,09,25,09,33,17.30
2006,09,25,09,34,17.30
2006,09,25,09,35,17.30
2006,09,25,09,36,17.30
2006,09,25,09,37,17.30
2006,09,25,09,38,17.30
2006,09,25,09,39,17.60
2006,09,25,09,40,18.00
2006,09,25,09,41,18.10
2006,09,25,09,42,18.20
2006,09,25,09,43,18.20
2006,09,25,09,44,18.30
2006,09,25,09,45,18.30
2006,09,25,09,46,18.40
2006,09,25,09,47,18.40
2006,09,25,09,48,18.50
2006,09,25,09,49,18.60
2006,09,25,09,50,18.70
2006,09,25,09,51,18.70
2006,09,25,09,52,18.70
2006,09,25,09,53,18.80
2006,09,25,09,54,18.90
2006,09,25,09,55,18.90
2006,09,25,09,56,18.90
2006,09,25,09,57,18.90
2006,09,25,09,58,18.90
2006,09,25,09,59,18.90
2006,09,25,10,00,18.90
2006,09,25,10,01,19.00
2006,09,25,10,02,19.10
2006,09,25,10,03,19.10
2006,09,25,10,04,19.10
2006,09,25,10,05,19.10
2006,09,25,10,06,19.10
2006,09,25,10,07,19.10
2006,09,25,10,08,19.10
2006,09,25,10,09,19.20
2006,09,25,10,10,19.30
2006,09,25,10,11,19.30
2006,09,25,10,12,19.30
2006,09,25,10,13,19.30
2006,09,25,10,14,19.30
2006,09,25,10,15,19.10
2006,09,25,10,16,19.10
2006,09,25,10,17,19.10
2006,09,25,10,18,19.10
2006,09,25,10,19,19.00
2006,09,25,10,20,18.90
2006,09,25,10,21,18.90
2006,09,25,10,22,18.90
2006,09,25,10,23,18.90
2006,09,25,10,24,18.90
2006,09,25,10,25,18.90
2006,09,25,10,26,19.00
2006,09,25,10,27,19.10
2006,09,25,10,28,19.10
2006,09,25,10,29,19.10
2006,09,25,10,30,19.10
2006,09,25,10,31,19.20
2006,09,25,10,32,19.20
2006,09,25,10,33,19.20
2006,09,25,10,34,19.20
2006,09,25,10,35,19.10
2006,09,25,10,36,19.10
2006,09,25,10,37,19.10
2006,09,25,10,38,19.10
2006,09,25,10,39,19.10
2006,09,25,10,40,19.10
2006,09,25,10,41,19.10
2006,09,25,10,42,19.00
2006,09,25,10,43,18.90
2006,09,25,10,44,18.90
2006,09,25,10,45,18.90
2006,09,25,10,46,18.90
2006,09,25,10,47,18.90
2006,09,25,10,48,18.90
2006,09,25,10,49,19.00
2006,09,25,10,50,18.90
2006,09,25,10,51,18.90
2006,09,25,10,52,18.90
2006,09,25,10,53,19.10
2006,09,25,10,54,19.20
2006,09,25,10,55,19.20
2006,09,25,10,56,19.20
2006,09,25,10,57,19.20
2006,09,25,10,58,19.20
2006,09,25,10,59,19.30
2006,09,25,11,00,19.40
2006,09,25,11,01,19.50
2006,09,25,11,02,19.60
2006,09,25,11,03,19.60
2006,09,25,11,04,19.60
2006,09,25,11,05,19.50
2006,09,25,11,06,19.40
2006,09,25,11,07,19.30
2006,09,25,11,08,19.30
2006,09,25,11,09,19.20
2006,09,25,11,10,19.30
2006,09,25,11,11,19.30
2006,09,25,11,12,19.30
2006,09,25,11,13,19.30
2006,09,25,11,14,19.30
2006,09,25,11,15,19.30
2006,09,25,11,16,19.30
2006,09,25,11,17,19.20
2006,09,25,11,18,19.20
2006,09,25,11,19,19.20
2006,09,25,11,20,19.30
2006,09,25,11,21,19.30
2006,09,25,11,22,19.40
2006,09,25,11,23,19.40
2006,09,25,11,24,19.40
2006,09,25,11,25,19.40
2006,09,25,11,26,19.40
2006,09,25,11,27,19.60
2006,09,25,11,28,19.50
2006,09,25,11,29,19.50
2006,09,25,11,30,19.50
2006,09,25,11,31,19.40
2006,09,25,11,32,19.30
2006,09,25,11,33,19.30
2006,09,25,11,34,19.30
2006,09,25,11,35,19.40
2006,09,25,11,36,19.50
2006,09,25,11,37,19.50
2006,09,25,11,38,19.50
2006,09,25,11,39,19.50
2006,09,25,11,40,20.20
2006,09,25,11,41,20.20
2006,09,25,11,42,20.20
2006,09,25,11,43,20.30
2006,09,25,11,44,20.30
2006,09,25,11,45,20.30
2006,09,25,11,46,20.30
2006,09,25,11,47,20.30
2006,09,25,11,48,20.30
2006,09,25,11,49,20.20
2006,09,25,11,50,20.20
2006,09,25,11,51,20.20
2006,09,25,11,52,20.20
2006,09,25,11,53,20.20
2006,09,25,11,54,20.20
2006,09,25,11,55,20.00
2006,09,25,11,56,19.90
2006,09,25,11,57,19.80
2006,09,25,11,58,19.80
2006,09,25,11,59,19.80
2006,09,25,12,00,19.90
2006,09,25,12,01,19.90
2006,09,25,12,02,19.90
2006,09,25,12,03,19.90
2006,09,25,12,04,19.90
2006,09,25,12,05,19.90
2006,09,25,12,06,20.00
2006,09,25,12,07,20.10
2006,09,25,12,08,20.10
2006,09,25,12,09,20.20
2006,09,25,12,10,20.20
2006,09,25,12,11,20.20
2006,09,25,12,12,20.30
2006,09,25,12,13,20.30
2006,09,25,12,14,20.30
2006,09,25,12,15,20.30
2006,09,25,12,16,20.30
2006,09,25,12,17,20.40
2006,09,25,12,18,20.40
2006,09,25,12,19,20.40
2006,09,25,12,20,20.40
2006,09,25,12,21,20.40
2006,09,25,12,22,20.30
2006,09,25,12,23,20.30
2006,09,25,12,24,20.30
2006,09,25,12,25,20.20
2006,09,25,12,26,20.20
2006,09,25,12,27,20.20
2006,09,25,12,28,20.20
2006,09,25,12,29,20.30
2006,09,25,12,30,20.40
2006,09,25,12,31,20.40
2006,09,25,12,32,20.40
2006,09,25,12,33,20.40
2006,09,25,12,34,20.40
2006,09,25,12,35,20.40
2006,09,25,12,36,20.30
2006,09,25,12,37,20.30
2006,09,25,12,38,20.30
2006,09,25,12,39,20.20
2006,09,25,12,40,20.10
2006,09,25,12,41,20.10
2006,09,25,12,42,20.10
2006,09,25,12,43,20.10
2006,09,25,12,44,20.10
2006,09,25,12,45,20.10
2006,09,25,12,46,20.20
2006,09,25,12,47,20.20
2006,09,25,12,48,20.20
2006,09,25,12,49,20.20
2006,09,25,12,50,20.20
2006,09,25,12,51,20.20
2006,09,25,12,52,20.20
2006,09,25,12,53,20.20
2006,09,25,12,54,20.40
2006,09,25,12,55,20.40
2006,09,25,12,56,20.50
2006,09,25,12,57,20.50
2006,09,25,12,58,20.50
2006,09,25,12,59,20.40
2006,09,25,13,00,20.30
2006,09,25,13,01,20.20
2006,09,25,13,02,20.20
2006,09,25,13,03,20.20
2006,09,25,13,04,20.20
2006,09,25,13,05,20.20
2006,09,25,13,06,20.20
2006,09,25,13,07,20.20
2006,09,25,13,08,20.30
2006,09,25,13,09,20.40
2006,09,25,13,10,20.60
2006,09,25,13,11,20.70
2006,09,25,13,12,20.70
2006,09,25,13,13,20.70
2006,09,25,13,14,20.70
2006,09,25,13,15,20.70
2006,09,25,13,16,20.60
2006,09,25,13,17,20.60
2006,09,25,13,18,20.60
2006,09,25,13,19,20.50
2006,09,25,13,20,20.40
2006,09,25,13,21,20.30
2006,09,25,13,22,20.20
2006,09,25,13,23,20.20
2006,09,25,13,24,20.30
2006,09,25,13,25,20.40
2006,09,25,13,26,20.40
2006,09,25,13,27,20.40
2006,09,25,13,28,20.40
2006,09,25,13,29,20.50
2006,09,25,13,30,20.50
2006,09,25,13,31,20.50
2006,09,25,13,32,20.50
2006,09,25,13,33,20.50
2006,09,25,13,34,20.50
2006,09,25,13,35,20.50
2006,09,25,13,36,20.50
2006,09,25,13,37,20.50
2006,09,25,13,38,20.60
2006,09,25,13,39,20.60
2006,09,25,13,40,20.60
2006,09,25,13,41,20.70
2006,09,25,13,42,20.70
2006,09,25,13,43,20.70
2006,09,25,13,44,20.70
2006,09,25,13,45,20.70
2006,09,25,13,46,20.80
2006,09,25,13,47,20.80
2006,09,25,13,48,20.80
2006,09,25,13,49,20.80
2006,09,25,13,50,20.80
2006,09,25,13,51,20.80
2006,09,25,13,52,20.70
2006,09,25,13,53,20.70
2006,09,25,13,54,20.70
2006,09,25,13,55,20.70
2006,09,25,13,56,20.70
2006,09,25,13,57,20.80
2006,09,25,13,58,20.90
2006,09,25,13,59,21.00
2006,09,25,14,00,21.10
2006,09,25,14,01,21.10
2006,09,25,14,02,21.10
2006,09,25,14,03,21.00
2006,09,25,14,04,21.00
2006,09,25,14,05,21.00
2006,09,25,14,06,21.00
2006,09,25,14,07,21.00
2006,09,25,14,08,21.00
2006,09,25,14,09,21.00
2006,09,25,14,10,21.00
2006,09,25,14,11,21.10
2006,09,25,14,12,21.10
2006,09,25,14,13,21.10
2006,09,25,14,14,21.20
2006,09,25,14,15,21.20
2006,09,25,14,16,21.10
2006,09,25,14,17,21.00
2006,09,25,14,18,21.00
2006,09,25,14,19,21.00
2006,09,25,14,20,21.00
2006,09,25,14,21,21.00
2006,09,25,14,22,20.90
2006,09,25,14,23,20.90
2006,09,25,14,24,20.90
2006,09,25,14,25,20.90
2006,09,25,14,26,20.90
2006,09,25,14,27,20.90
2006,09,25,14,28,20.90
2006,09,25,14,29,20.80
2006,09,25,14,30,20.80
2006,09,25,14,31,20.80
2006,09,25,14,32,20.80
2006,09,25,14,33,20.90
2006,09,25,14,34,21.00
2006,09,25,14,35,21.00
2006,09,25,14,36,21.10
2006,09,25,14,37,21.10
2006,09,25,14,38,21.20
2006,09,25,14,39,21.20
2006,09,25,14,40,21.20
2006,09,25,14,41,21.10
2006,09,25,14,42,21.00
2006,09,25,14,43,21.10
2006,09,25,14,44,21.20
2006,09,25,14,45,21.30
2006,09,25,14,46,21.40
2006,09,25,14,47,21.40
2006,09,25,14,48,21.50
2006,09,25,14,49,21.60
2006,09,25,14,50,21.60
2006,09,25,14,51,21.60
2006,09,25,14,52,21.60
2006,09,25,14,53,21.60
2006,09,25,14,54,21.60
2006,09,25,14,55,21.60
2006,09,25,14,56,21.60
2006,09,25,14,57,21.60
2006,09,25,14,58,21.60
2006,09,25,14,59,21.60
2006,09,25,15,00,21.60
2006,09,25,15,01,21.60
2006,09,25,15,02,21.60
2006,09,25,15,03,21.60
2006,09,25,15,04,21.60
2006,09,25,15,05,21.70
2006,09,25,15,06,21.70
2006,09,25,15,07,21.70
2006,09,25,15,08,21.80
2006,09,25,15,09,21.80
2006,09,25,15,10,21.80
2006,09,25,15,11,21.70
2006,09,25,15,12,21.70
2006,09,25,15,13,21.80
2006,09,25,15,14,21.80
2006,09,25,15,15,21.70
2006,09,25,15,16,21.70
2006,09,25,15,17,21.70
2006,09,25,15,18,21.70
2006,09,25,15,19,21.70
2006,09,25,15,20,21.70
2006,09,25,15,21,21.80
2006,09,25,15,22,21.70
2006,09,25,15,23,21.70
2006,09,25,15,24,21.60
2006,09,25,15,25,21.60
2006,09,25,15,26,21.70
2006,09,25,15,27,21.70
2006,09,25,15,28,21.70
2006,09,25,15,29,21.80
2006,09,25,15,30,21.70
2006,09,25,15,31,21.70
2006,09,25,15,32,21.70
2006,09,25,15,33,21.70
2006,09,25,15,34,21.60
2006,09,25,15,35,21.60
2006,09,25,15,36,21.70
2006,09,25,15,37,21.70
2006,09,25,15,38,21.70
2006,09,25,15,39,21.70
2006,09,25,15,40,21.70
2006,09,25,15,41,21.70
2006,09,25,15,42,21.80
2006,09,25,15,43,21.80
2006,09,25,15,44,21.80
2006,09,25,15,45,21.80
2006,09,25,15,46,21.90
2006,09,25,15,47,21.90
2006,09,25,15,48,21.90
2006,09,25,15,49,22.00
2006,09,25,15,50,22.10
2006,09,25,15,51,22.10
2006,09,25,15,52,22.10
2006,09,25,15,53,22.10
2006,09,25,15,54,22.00
2006,09,25,15,55,22.00
2006,09,25,15,56,22.00
2006,09,25,15,57,22.00
2006,09,25,15,58,22.00
2006,09,25,15,59,21.90
2006,09,25,16,00,21.90
2006,09,25,16,01,21.90
2006,09,25,16,02,21.90
2006,09,25,16,03,22.00
2006,09,25,16,04,22.00
2006,09,25,16,05,22.00
2006,09,25,16,06,22.10
2006,09,25,16,07,22.10
2006,09,25,16,08,22.10
2006,09,25,16,09,22.10
2006,09,25,16,10,22.00
2006,09,25,16,11,22.00
2006,09,25,16,12,22.00
2006,09,25,16,13,22.10
2006,09,25,16,14,22.10
2006,09,25,16,15,22.20
2006,09,25,16,16,22.20
2006,09,25,16,17,22.30
2006,09,25,16,18,22.40
2006,09,25,16,19,22.50
2006,09,25,16,20,22.50
2006,09,25,16,21,22.60
2006,09,25,16,22,22.70
2006,09,25,16,23,22.70
2006,09,25,16,24,22.70
2006,09,25,16,25,22.80
2006,09,25,16,26,22.80
2006,09,25,16,27,22.80
2006,09,25,16,28,22.80
2006,09,25,16,29,22.90
2006,09,25,16,30,22.90
2006,09,25,16,31,22.90
2006,09,25,16,32,22.90
2006,09,25,16,33,22.90
2006,09,25,16,34,22.90
2006,09,25,16,35,22.90
2006,09,25,16,36,23.00
2006,09,25,16,37,23.10
2006,09,25,16,38,23.10
2006,09,25,16,39,23.20
2006,09,25,16,40,23.20
2006,09,25,16,41,23.10
2006,09,25,16,42,23.10
2006,09,25,16,43,23.10
2006,09,25,16,44,23.20
2006,09,25,16,45,23.20
2006,09,25,16,46,23.30
2006,09,25,16,47,23.30
2006,09,25,16,48,23.30
2006,09,25,16,49,23.40
2006,09,25,16,50,23.50
2006,09,25,16,51,23.60
2006,09,25,16,52,23.50
2006,09,25,16,53,23.40
2006,09,25,16,54,23.40
2006,09,25,16,55,23.40
2006,09,25,16,56,23.40
2006,09,25,16,57,23.60
2006,09,25,16,58,23.60
2006,09,25,16,59,23.60
2006,09,25,17,00,23.40
2006,09,25,17,01,23.40
2006,09,25,17,02,23.30
2006,09,25,17,03,23.30
2006,09,25,17,04,23.20
2006,09,25,17,05,23.20
2006,09,25,17,06,23.10
2006,09,25,17,07,23.10
2006,09,25,17,08,23.10
2006,09,25,17,09,23.10
2006,09,25,17,10,23.20
2006,09,25,17,11,23.20
2006,09,25,17,12,23.10
2006,09,25,17,13,23.00
2006,09,25,17,14,22.90
2006,09,25,17,15,22.90
2006,09,25,17,16,22.80
2006,09,25,17,17,22.80
2006,09,25,17,18,22.80
2006,09,25,17,19,22.60
2006,09,25,17,20,22.50
2006,09,25,17,21,22.30
2006,09,25,17,22,22.20
2006,09,25,17,23,22.10
2006,09,25,17,24,22.00
2006,09,25,17,25,22.00
2006,09,25,17,26,21.90
2006,09,25,17,27,21.80
2006,09,25,17,28,21.70
2006,09,25,17,29,21.60
2006,09,25,17,30,21.60